This is the latest recevied weather packets stored in our database for station/object IR3AS. If no packets are shown the sender has not sent any weather packets the latest 10 day(s).
| Time | Temp. | Humidity | Pressure | Rain* | Wind** | Luminosity | Snow |
|---|---|---|---|---|---|---|---|
| 1777316475 | 5.56° C | 82% | 859.7 hPa | 0 mm | - | - | - |
| 1777316174 | 5.56° C | 82% | 859.8 hPa | 0 mm | - | - | - |
| 1777315874 | 5.56° C | 82% | 860 hPa | 0 mm | - | - | - |
| 1777315574 | 5.56° C | 82% | 860 hPa | 0 mm | - | - | - |
| 1777315274 | 5.56° C | 82% | 859.9 hPa | 0 mm | - | - | - |
| 1777314974 | 5.56° C | 82% | 859.8 hPa | 0 mm | - | - | - |
| 1777314674 | 5.56° C | 82% | 860.3 hPa | 0 mm | - | - | - |
| 1777314375 | 5.56° C | 82% | 860.1 hPa | 0 mm | - | - | - |
| 1777314074 | 5.56° C | 81% | 860 hPa | 0 mm | - | - | - |
| 1777313775 | 5.56° C | 82% | 859.8 hPa | 0 mm | - | - | - |
| 1777313474 | 5.56° C | 82% | 860.2 hPa | 0 mm | - | - | - |
| 1777313174 | 5.56° C | 81% | 859.7 hPa | 0 mm | - | - | - |
| 1777312874 | 6.11° C | 81% | 860.2 hPa | 0 mm | - | - | - |
| 1777312575 | 6.11° C | 81% | 859.9 hPa | 0 mm | - | - | - |
| 1777312274 | 6.11° C | 80% | 860.1 hPa | 0 mm | - | - | - |
| 1777311974 | 6.11° C | 81% | 860.3 hPa | 0 mm | - | - | - |
| 1777311675 | 6.67° C | 79% | 860.7 hPa | 0 mm | - | - | - |
| 1777311374 | 6.67° C | 79% | 860.4 hPa | 0 mm | - | - | - |
| 1777311074 | 7.22° C | 77% | 860.6 hPa | 0 mm | - | - | - |
| 1777310774 | 7.78° C | 77% | 860.7 hPa | 0 mm | - | - | - |
| 1777310475 | 7.22° C | 77% | 861.1 hPa | 0 mm | - | - | - |
| 1777310174 | 7.22° C | 76% | 860.9 hPa | 0 mm | - | - | - |
| 1777309874 | 7.78° C | 74% | 860.7 hPa | 0 mm | - | - | - |
| 1777309574 | 8.33° C | 72% | 860.4 hPa | 0 mm | - | - | - |
| 1777309275 | 8.33° C | 71% | 860.6 hPa | 0 mm | - | - | - |
* Rain latest hour (hover to see other rain measurements)
** Current wind speed in m/s (hover to see current wind gust speed)